Location: ????????
(55.6676°N, 38.8570°E)
Time: 11:59:58
(UTC+00:00)

Daily predictions for brighter satellites

Satellite Brightness Start Highest point End
(mag) Time Altitude Azimuth Time Altitude Azimuth Time Altitude Azimuth
ATLAS 2AS CENTAUR R/B 3.0 18:59:19 10° NW 19:06:29 64° SW 19:13:08 10° SSE
Cosmos 1607 4.3 19:01:18 10° SSW 19:07:07 44° ESE 19:12:55 10° NE
Cosmos 1980 Rocket 3.4 19:07:07 10° NNW 19:12:26 37° NE 19:17:43 10° ESE
USA 234 3.5 19:08:11 10° SE 19:14:40 62° SSW 19:21:11 10° WNW
Helios 1A Rocket 4.0 19:11:18 10° S 19:15:10 41° W 19:19:04 10° NNW
Cosmos 1455 2.7 19:12:53 10° NNW 19:16:38 59° W 19:20:23 10° S
Cosmos 1697 Rocket 3.2 19:11:10 10° NNW 19:16:45 57° NE 19:22:17 10° SE
Cosmos 1703 4.0 19:17:06 10° SSE 19:20:41 37° E 19:24:17 10° NNE
Cosmos 1536 Rocket 3.8 19:17:12 10° S 19:21:24 53° E 19:25:39 10° NNE
Meteor 1-24 Rocket 3.8 19:17:27 10° SSW 19:22:46 80° WNW 19:28:14 10° NNE
Cosmos 2184 Rocket 4.0 19:18:07 10° N 19:24:20 87° E 19:30:32 10° S
Cosmos 1606 Rocket 4.1 19:21:16 10° N 19:25:28 47° ENE 19:29:39 10° SSE
Cosmos 1624 Rocket 4.0 19:20:31 10° SSW 19:25:45 79° ESE 19:30:59 10° NNE
Lacrosse 4 Rocket 3.0 19:23:37 10° WSW 19:27:31 40° NW 19:31:23 10° NNE
SPOT 5 3.9 19:23:44 10° SSW 19:27:49 35° W 19:31:50 10° NNW
Cosmos 1975 Rocket 4.1 19:23:36 10° SSW 19:27:56 49° WNW 19:32:16 10° N
CZ-2C R/B 3.9 19:29:26 10° NNE 19:34:07 81° WNW 19:38:41 10° SSW
Cosmos 2228 3.0 19:30:54 10° N 19:35:10 81° ENE 19:39:25 10° SSE
SJ 16-02 4.1 19:33:46 10° N 19:35:37 12° NNE 19:37:28 10° ENE
Cosmos 1656 3.8 19:34:27 10° NW 19:39:52 66° WSW 19:45:18 10° SSE
Meteor 2-1 Rocket 4.3 19:34:33 10° NNW 19:40:05 72° ENE 19:45:35 10° SSE
RESURS DK-1 2.4 19:36:30 10° NW 19:40:40 87° ENE 19:44:48 10° SE
Cosmos 2322 Rocket 4.4 19:37:05 10° NNW 19:41:34 23° NNE 19:46:04 10° ENE
Cosmos 2360 4.4 19:37:03 10° NNW 19:42:48 77° NE 19:48:33 10° SE
Lacrosse 5 rocket 2.9 19:42:50 10° W 19:45:41 20° SW 19:48:39 10° S
Cosmos 2056 Rocket 3.8 19:40:20 10° SSW 19:45:44 79° WNW 19:51:13 10° NNE
Cosmos 1741 Rocket 4.1 19:40:45 10° NNW 19:46:04 77° WSW 19:51:17 11° SSE
Cosmos 2344 4.2 19:38:11 10° NW 19:46:32 88° SW 19:58:00 10° SE
ERS-1 Rocket 4.5 19:46:23 10° SSW 19:50:48 30° W 19:55:14 10° NNW
Cosmos 1833 Rocket 3.6 19:46:07 10° SSE 19:50:57 31° ESE 19:55:48 10° NE
Cosmos 1726 Rocket 3.7 19:47:17 10° N 19:51:36 64° ENE 19:55:39 11° SSE
Lacrosse 5 2.8 19:48:16 10° WNW 19:52:49 33° SW 19:57:08 11° SSE
Cosmos 1420 Rocket 4.2 19:51:43 10° SSW 19:56:59 78° WNW 20:02:19 10° NNE
ALOS 2 3.4 19:52:53 10° SE 19:57:01 43° ENE 20:01:12 10° N
Cosmos 2084 Rocket 3.5 19:57:49 10° NW 20:01:40 67° NNE 20:05:37 10° ESE
SL-8 R/B 4.4 19:57:56 10° WSW 20:02:17 34° S 20:06:38 10° ESE
Cosmos 968 Rocket 3.9 19:57:45 10° NNW 20:02:54 60° ENE 20:08:03 10° SE
Cosmos 2084 3.2 19:59:45 10° SW 20:03:31 56° SE 20:07:21 10° ENE
Cosmos 2082 Rocket 3.8 20:03:18 10° SE 20:07:15 20° E 20:11:15 10° NE
Terra 3.7 20:09:07 10° SW 20:12:56 23° W 20:16:46 10° NW
ARIANE 5 R/B 4.3 20:10:21 10° SSW 20:14:07 26° W 20:17:54 10° NW
Cosmos 1900 4.5 20:10:33 10° NW 20:15:45 77° SW 20:20:43 11° SE
Cosmos 2058 Rocket 3.2 20:12:49 10° N 20:17:13 68° ENE 20:21:05 13° SSE
FALCON 9 DEB 3.1 20:15:18 10° WSW 20:18:29 50° S 20:21:41 10° E
USA 267 3.2 20:14:15 10° ENE 20:20:48 67° SSE 20:27:19 10° SW
Cosmos 2360 Rocket 4.2 20:18:48 10° NNW 20:23:35 26° NNE 20:28:20 10° E
SAR-Lupe-4 4.1 20:21:50 10° N 20:25:22 58° WNW 20:28:54 10° SSW
GP-B 3.1 20:21:09 10° N 20:25:37 90° NNW 20:29:38 13° S
Cosmos 1869 4.0 20:24:32 10° N 20:28:15 43° ENE 20:31:35 12° SE
USA 276 3.4 20:27:48 16° S 20:28:34 17° SSE 20:30:37 10° ESE
Cosmos 1892 Rocket 3.7 20:25:12 13° S 20:29:04 64° E 20:33:26 10° NNE
ADEOS Rocket 3.6 20:28:53 12° SSE 20:35:35 84° ENE 20:43:17 10° NNW
COSMOS 2406 3.9 20:31:18 13° S 20:36:03 39° ESE 20:41:22 10° NE
Spot 4 4.1 20:32:50 13° S 20:37:00 64° WSW 20:41:48 10° NNW
Cosmos 1867 3.7 20:32:17 10° NW 20:37:48 85° NE 20:43:17 10° SE
ASTEX 1 3.8 20:35:01 10° N 20:39:58 64° WNW 20:44:54 10° SSW
Cosmos 2369 3.8 20:35:05 10° NW 20:40:49 75° WSW 20:46:00 13° SSE
Nadezhda 1 Rocket 4.3 20:35:08 10° SSW 20:41:12 65° WNW 20:47:16 10° N
Cosmos 1408 2.6 20:39:06 16° S 20:41:44 60° E 20:45:09 10° NNE
TSX-5 4.5 20:38:47 10° SW 20:43:23 86° SE 20:49:27 10° NE
Cosmos 1331 Rocket 4.0 20:39:05 10° SSW 20:44:22 74° ESE 20:49:42 10° NNE
Meteor 1-11 4.3 20:40:03 13° S 20:45:07 70° E 20:50:42 10° NNE
SL-16 R/B 3.2 20:39:51 10° NNW 20:45:20 46° NE 20:50:48 10° ESE
Cosmos 1626 Rocket 4.4 20:44:15 14° SSE 20:47:33 37° E 20:51:34 10° NNE
Cosmos 1452 Rocket 3.8 20:42:19 10° SW 20:47:35 72° WNW 20:52:52 10° NNE
Okean 1-7 Rocket 4.2 20:46:16 15° SSE 20:49:44 45° E 20:54:01 10° NNE
Cosmos-2242 4.0 20:47:50 10° N 20:51:52 39° ENE 20:55:46 11° SE
Cosmos 724 4.3 20:46:21 10° SW 20:52:10 84° NW 20:58:02 10° NE
H-2A R/B 3.6 20:49:10 10° NNE 20:53:23 68° ESE 20:56:51 15° S
Cosmos 1607 4.4 20:48:02 10° WSW 20:54:14 65° NW 21:00:24 10° NE
Cosmos 1825 2.8 20:51:38 16° SSE 20:54:21 42° E 20:57:55 10° NNE
Cosmos 1606 4.2 20:52:32 10° N 20:55:57 29° ENE 20:59:21 10° SE
ATLAS 2AS CENTAUR R/B 4.4 20:51:29 10° WNW 20:56:05 19° WSW 21:00:30 10° SSW
Cosmos 1980 Rocket 2.3 20:51:10 10° NW 20:56:50 66° WSW 21:01:47 14° SSE
Cosmos 1328 4.5 20:53:34 10° SSW 20:57:31 52° WNW 21:01:28 10° N
USA 234 4.4 20:54:06 13° S 20:58:36 26° SW 21:03:56 10° WNW
Cosmos 1697 Rocket 3.6 20:55:26 10° NW 21:00:34 37° WSW 21:04:56 13° S
Cosmos 1110 Rocket 4.1 20:58:17 10° SSW 21:03:34 79° WNW 21:08:54 10° NNE
Cosmos 2219 Rocket 4.4 21:01:19 10° NNW 21:06:01 26° NNE 21:10:42 10° E
ERS-2 2.5 21:04:32 10° NNE 21:08:03 48° ESE 21:10:36 17° S
Cosmos 1302 Rocket 4.1 21:03:41 14° S 21:08:09 61° ESE 21:13:18 10° NNE
SL-8 Rocket 4.4 21:08:03 10° NNW 21:14:09 56° W 21:19:35 13° SSW
SJ 16-02 2.4 21:11:09 10° NNW 21:15:24 42° NE 21:19:37 10° SE
In-Cosmos 22 Rocket 4.2 21:11:09 14° S 21:16:04 81° ESE 21:21:35 10° NNE
Cosmos 1892 2.8 21:14:07 14° SSW 21:17:14 68° WNW 21:21:00 10° N
RESURS DK-1 4.4 21:15:32 10° WNW 21:18:05 16° WSW 21:20:37 10° SW
BREEZE-M DEB (TANK) 4.3 21:10:42 10° SW 21:18:19 30° S 21:21:27 10° ESE
Cosmos 2333 Rocket 4.0 21:13:18 10° NNW 21:18:30 33° NE 21:23:42 10° E
Cosmos 2218 Rocket 4.4 21:13:30 10° NNW 21:19:47 60° W 21:25:20 14° S
Geosat 4.1 21:18:16 10° SE 21:23:18 82° NE 21:28:22 10° NNW
Cosmos 2278 3.8 21:21:03 10° NW 21:26:44 65° WSW 21:31:48 13° SSE
Cosmos 2322 Rocket 2.7 21:21:10 10° NNW 21:26:48 60° NE 21:32:25 10° SE
Aureole 1 Rocket 4.3 21:20:29 10° NNW 21:26:48 83° WSW 21:34:34 10° SSE
Cosmos 2366 rocket 4.5 21:21:54 10° NNW 21:28:00 53° W 21:33:28 13° SSW
CZ-2D R/B 4.4 21:28:12 10° ENE 21:30:26 13° E 21:32:41 10° ESE
Cosmos 1758 Rocket 4.0 21:29:59 15° SSE 21:33:21 53° E 21:37:37 10° NNE
ALOS 2 3.8 21:30:06 13° SSW 21:33:29 31° W 21:37:26 10° NNW
Cosmos 1833 Rocket 3.0 21:28:56 10° SW 21:34:31 67° NW 21:40:10 10° NNE
SL-16 R/B 4.2 21:29:11 10° ESE 21:34:35 32° NE 21:40:01 10° N
Cosmos 2058 4.1 21:34:11 12° SSE 21:37:33 33° E 21:41:19 10° NNE
Cosmos 1812 Rocket 3.7 21:35:37 10° NNW 21:40:06 67° W 21:43:39 16° S
Cosmos 2084 Rocket 4.3 21:37:29 10° WNW 21:40:50 28° SW 21:43:08 16° S
Cosmos 2221 3.7 21:44:13 10° N 21:48:17 39° ENE 21:52:23 10° SE
Resurs 1-4 Rocket 4.1 21:45:40 10° NE 21:49:20 19° E 21:53:00 10° SE
Cosmos 2082 Rocket 2.2 21:45:07 11° SSW 21:50:34 84° ESE 21:56:19 10° NE
ATLAS 5 CENTAUR R/B 2.8 21:49:33 14° SSE 21:51:42 22° ESE 21:54:58 10° ENE
SL-19 R/B 4.1 21:51:26 15° SSE 21:54:15 81° WSW 21:58:16 10° NNW
FALCON 9 DEB 3.2 21:51:22 10° W 21:54:31 45° SSW 21:57:40 10° ESE
Cosmos 2237 4.3 21:49:34 10° NW 21:55:21 84° NE 22:01:06 10° SE
Meteor 2-2 Rocket 4.4 21:52:13 10° NNW 21:58:12 84° ENE 22:04:05 11° SSE
Cosmos 1602 Rocket 3.6 21:55:07 15° SSW 21:58:41 74° WNW 22:03:02 10° N
Cosmos 1633 2.5 21:57:32 16° SSW 22:00:12 74° WNW 22:03:43 10° N
USA 276 2.9 22:00:46 10° WSW 22:03:17 26° S 22:05:48 10° ESE
USA 267 3.4 21:57:27 10° ENE 22:04:01 83° N 22:10:35 10° W
COSMOS 2428 4.4 22:01:23 10° NNW 22:06:40 36° NE 22:11:55 10° ESE
Cosmos 1934 Rocket 4.0 22:01:29 10° NNW 22:07:36 90° SW 22:13:26 11° S
Cosmos 2360 Rocket 2.4 22:02:48 10° NNW 22:08:32 74° NE 22:14:13 10° SE
Cosmos 1238 4.2 22:12:41 17° SSW 22:14:53 73° W 22:18:02 10° N
COSMOS 2406 3.9 22:14:35 10° SW 22:20:15 55° NW 22:25:56 10° NNE
Cosmos 1953 Rocket 3.9 22:18:01 13° S 22:21:55 62° E 22:26:19 10° NNE
Cosmos 1354 Rocket 4.3 22:18:58 10° NW 22:24:08 52° WSW 22:28:58 12° S
BREEZE-M DEB (TANK) 4.3 22:24:50 14° S 22:26:59 25° SE 22:32:59 10° E
Cosmos 1992 Rocket 4.2 22:23:25 11° SW 22:28:26 74° WNW 22:33:43 10° NNE
Cosmos-2242 4.2 22:25:35 10° NNW 22:29:17 30° W 22:32:34 12° SSW
SL-16 R/B 2.5 22:24:06 10° NW 22:29:34 49° WSW 22:34:59 10° S
Cosmos 1825 4.0 22:26:48 10° WSW 22:29:52 23° WNW 22:32:57 10° N
Cosmos 1606 3.7 22:28:05 10° NNW 22:31:33 33° W 22:34:28 13° SSW
ADEOS II 3.9 22:32:28 10° NE 22:36:41 24° E 22:40:52 10° SE
Cosmos 1825 Rocket 3.7 22:33:22 13° SSW 22:37:08 69° WNW 22:41:29 10° N
Cosmos 1340 Rocket 2.9 22:34:26 13° S 22:37:50 72° E 22:41:47 10° NNE
Cosmos 1980 Rocket 4.1 22:36:45 10° WNW 22:39:49 15° W 22:42:51 10° SW
ERS-2 4.1 22:38:21 10° N 22:41:09 21° WNW 22:43:56 10° WSW
Cosmos 1605 Rocket 4.1 22:34:56 10° NNW 22:41:22 83° W 22:47:46 10° S
Nadezhda 3 Rocket 4.4 22:38:37 11° SSW 22:44:27 55° WNW 22:50:31 10° N
MOZ.5/SAFIR/RUBIN 5/SL-8 3.9 22:40:25 11° S 22:45:02 63° WSW 22:49:46 10° NNW
Cosmos 1842 Rocket 3.6 22:42:47 10° NNW 22:47:18 84° W 22:51:47 10° S
Meteor 2-3 Rocket 4.4 22:43:01 10° SSE 22:48:25 49° E 22:53:47 10° NNE
Cosmos 990 Rocket 4.4 22:44:26 10° NNW 22:49:36 67° ENE 22:54:43 10° SE
Cosmos 2219 Rocket 2.5 22:45:16 10° NNW 22:50:57 71° NE 22:56:38 10° SE
SJ 16-02 2.2 22:49:53 10° NW 22:53:53 33° WSW 22:57:37 11° SSW
SL-24 DEB 4.4 22:50:45 10° SSE 22:55:18 73° E 22:59:55 10° N
Cosmos 1076 Rocket 4.2 22:52:01 10° S 22:56:14 51° E 23:00:31 10° NNE
Cosmos 1782 3.0 22:52:59 10° N 22:57:00 74° ENE 23:00:59 10° SSE
Cosmos 972 Rocket 4.2 22:53:03 10° NNW 22:57:53 55° WSW 23:03:02 10° S
Cosmos 2333 Rocket 2.2 22:57:36 10° NW 23:03:23 80° WSW 23:09:09 10° SSE
Meteor 1-28 Rocket 4.0 23:01:54 10° SE 23:05:29 50° ENE 23:09:05 10° N
COSMOS 2487 4.5 23:03:45 10° SE 23:05:49 17° ESE 23:07:53 10° ENE
Cosmos 1898 Rocket 4.0 23:01:16 10° NNW 23:06:27 63° ENE 23:11:35 10° SE
Cosmos 2322 Rocket 2.9 23:05:32 10° NW 23:10:38 35° WSW 23:15:44 10° S
CZ-2D R/B 2.4 23:06:21 10° NNE 23:11:34 64° ESE 23:16:44 10° S
COSMOS 2455 4.1 23:07:10 10° NW 23:12:59 47° NNE 23:18:48 10° ESE
YAOGAN 11 4.4 23:08:42 10° SSE 23:13:17 79° ENE 23:17:50 10° NNW
Cosmos 2058 4.0 23:10:30 10° SW 23:14:23 35° WNW 23:18:16 10° N
Cosmos 1151 Rocket 4.3 23:13:25 10° N 23:17:36 42° ENE 23:21:46 10° SE
SL-16 R/B 2.6 23:11:30 10° SSE 23:17:46 75° WSW 23:24:04 10° NNW
IDEFIX/ARIANE 42P 3.6 23:13:40 10° NNE 23:18:37 40° E 23:23:31 10° SSE
USA 290 3.1 23:17:02 10° NNW 23:20:14 53° ENE 23:23:25 10° SE
Cosmos 1933 3.6 23:18:03 10° NNW 23:21:59 52° W 23:25:52 10° S
Thor Agena Rocket 3.7 23:18:09 10° NNE 23:23:25 72° WNW 23:28:34 10° SSW
Cosmos 2221 3.6 23:21:56 10° NNW 23:25:45 31° W 23:29:34 10° SSW
Cosmos 1937 Rocket 3.9 23:22:13 10° NNW 23:27:32 68° ENE 23:32:46 10° SE
Resurs 1-4 Rocket 2.2 23:24:33 10° NNE 23:29:56 88° ESE 23:35:16 10° SSW
FALCON 9 DEB 4.4 23:27:54 10° W 23:30:18 19° SSW 23:32:40 10° SSE
Cosmos 2082 Rocket 3.7 23:30:13 10° W 23:35:18 32° NW 23:40:24 10° NNE
ATLAS 5 CENTAUR R/B 1.6 23:31:45 10° WSW 23:35:38 77° NW 23:40:13 10° NE
Helios 1A 3.1 23:31:31 10° SSE 23:35:43 80° ENE 23:39:56 10° NNW
SL-4 R/B 4.0 23:34:44 10° S 23:36:34 13° SE 23:38:28 10° ESE
USA 276 3.4 23:35:53 10° WSW 23:38:01 18° SSW 23:40:08 10° SSE
SAR-Lupe-2 4.3 23:37:41 10° NNE 23:41:13 50° ESE 23:44:43 10° S
Cosmos 1833 4.3 23:39:09 10° SSW 23:44:45 74° ESE 23:50:21 10° NE
MOS 1 Rocket 3.9 23:40:27 10° S 23:45:16 48° W 23:50:21 10° NNW
USA 267 3.4 23:40:29 10° E 23:47:03 87° NNE 23:53:38 10° WNW
